Location: Unspecified
(35.6961°N, 0.0000°E)
Time: 18:48:48
(UTC+00:00)

ISS - Pass Details

Date: 30 April 2019
Orbit: 407 x 410 km, 51.6° (Epoch: 22 May)

Event Time Altitude Azimuth Distance (km) Brightness Sun altitude
Exits shadow 03:17:10 39° 127° (SE) 627 -2.8 -21.0°
Drops below altitude 10° 03:20:11 10° 63° (ENE) 1,475 0.2 -20.5°
Sets 03:22:20 0° 55° (NE) 2,340 1.7 -20.1°
